Home > Weather > Salta > Past weeks

Flag for Argentina Past Weather in Salta, Salta, Argentina — Yesterday and Last 2 Weeks

Now
59 °F

Clear.


Feels Like: 60 °F
Forecast: 31 / 70 °F
Wind: 3 mph from East

Location: Salta Aerodrome

Current Time: Jul 23, 2016 at 2:15:10 PM

Latest Report: Jul 23, 2016 at 1:00 PM


Visibility: 6 mi

Pressure: 29.98 "Hg (26.05 "Hg at 1184m altitude)

Humidity: 59%

Dew Point: 45 °F

Location of SaltaLocation

Past Weather in Salta — Graph

°F

Salta Temperature Yesterday

Maximum temperature yesterday: 66 °F (at 3:00 PM)
Minimum temperature yesterday: 36 °F (at 4:00 AM)
Average temperature yesterday: 50 °F

High & Low Weather Summary for the Past Weeks

 TemperatureHumidityPressure
High84 °F (Jul 11, 4:00 PM)100% (Jul 9, 8:00 AM)30.39 "Hg (Jul 9, 8:00 AM)
Low34 °F (Jul 20, 8:00 AM)7% (Jul 14, 4:00 PM)29.74 "Hg (Jul 13, 5:00 PM)
Average51 °F72%30.06 "Hg
* Reported Jul 8 1:00 PM — Jul 23 1:00 PM, Salta, Weather by CustomWeather, © 2016

Note: Actual official high and low records may vary slightly from our data, if they occured in-between our weather recording intervals... More about our weather records

Advertising

Salta Weather History for the Previous 24 Hours

Scroll right to see more
 ConditionsComfort  
Time TempWeatherWind HumidityBarometerVisibility
1:00 PM
Sat, Jul 23
59 °FClear.3 mph59%29.98 "Hg6 mi
12:00 PM54 °FSunny.3 mph67%30.01 "Hg10 mi
11:00 AM48 °FSunny.2 mph87%30.01 "Hg10 mi
10:00 AM45 °FSunny.No wind87%30.01 "Hg10 mi
9:00 AM36 °FSunny.2 mph93%29.98 "Hg10 mi
8:00 AM34 °FSunny.No wind100%29.98 "Hg10 mi
7:00 AM36 °FClear.3 mph93%29.95 "Hg10 mi
6:00 AM36 °FClear.No wind93%29.95 "Hg10 mi
5:00 AM39 °FClear.2 mph93%29.95 "Hg10 mi
4:00 AM39 °FClear.2 mph93%29.95 "Hg10 mi
3:00 AM39 °FClear.5 mph93%29.98 "Hg10 mi
2:00 AM41 °FClear.3 mph87%30.01 "Hg10 mi
12:00 AM45 °FClear.3 mph87%30.04 "Hg10 mi
11:00 PM
Fri, Jul 22
48 °FClear.3 mph82%30.04 "Hg10 mi
10:00 PM50 °FClear.6 mph76%30.04 "Hg10 mi
9:00 PM52 °FClear.6 mph72%30.01 "Hg10 mi
8:00 PM54 °FClear.6 mph63%30.01 "Hg10 mi
7:00 PM57 °FClear.5 mph55%29.98 "Hg10 mi
6:00 PM64 °FClear.7 mph43%29.98 "Hg10 mi
5:00 PM66 °FSunny.10 mph43%29.98 "Hg10 mi
4:00 PM66 °FSunny.3 mph43%29.98 "Hg10 mi
3:00 PM66 °FSunny.6 mph43%30.01 "Hg10 mi
2:00 PM63 °FSunny.No wind49%30.04 "Hg10 mi
Weather by CustomWeather, © 2016

See weather overviewHow to use our weather pages